Regional Weather Roundup
Issued by NWS

Home | Current Version | Previous Version | Graphics & Text | Print | Product List | Glossary On
Versions: 1 2 3 4 5 6 7 8 9 10 11 12 13 14 15 16 17 18 19 20 21 22 23 24 25 26 27 28 29 30 31 32 33 34 35 36 37 38 39 40 41 42 43 44 45 46 47 48 49 50
000
ASUS43 KLSX 240659
RWRMO

WEATHER SUMMARY FOR MISSOURI
NATIONAL WEATHER SERVICE SPRINGFIELD MO
200 AM CDT FRI OCT 24 2014

NOTE: "FAIR" INDICATES FEW OR NO CLOUDS BELOW 12,000 FEET WITH NO
       SIGNIFICANT WEATHER AND/OR OBSTRUCTIONS TO VISIBILITY.
       CURRENT SKY AND/OR WEATHER CONDITIONS ARE NOT AVAILABLE FOR
       CHILLICOTHE AND FARMINGTON.

MOZ001>031-035>038-043-044-053-054-240800-
...NORTHERN AND WESTERN MISSOURI...

CITY           SKY/WX    TMP DP  RH WIND       PRES   REMARKS
KANSAS CTY INT MOCLDY    56  56 100 S9        30.07F FOG
KANSAS C DTWN  MOCLDY    58  56  93 SW3       30.08S FOG
LEE`S SUMMIT   MOCLDY    56  55  97 SW5       30.09S FOG
ST JOSEPH      FOG       54  54 100 S6        30.06F VSB 3/4
KIRKSVILLE     FOG       57  57 100 W7        30.07F VSB 1/4

$$
MOZ066>068-077>081-088>096-101>105-240800-
...SOUTHWEST MISSOURI...

CITY           SKY/WX    TMP DP  RH WIND       PRES   REMARKS
SPRINGFIELD    MOCLDY    52  51  97 S7        30.12S FOG
JOPLIN         CLEAR     51  51 100 SE6       30.12S FOG

$$
MOZ032>034-039>042-045>050-055>058-069>072-240800-
...CENTRAL MISSOURI...

CITY           SKY/WX    TMP DP  RH WIND       PRES   REMARKS
COLUMBIA       FOG       51  51 100 SW5       30.10S VSB 1/4
JEFFERSON CITY PTCLDY    50  49  96 CALM      30.10R
ROLLA          CLOUDY    54  48  80 SW7       30.09F
SEDALIA        CLOUDY    62  57  83 SW5       30.11S
WHITEMAN AFB   MOCLDY    57  55  94 SW8       30.09F
OSAGE BEACH    CLOUDY    59  54  82 W3        30.10F

$$
MOZ051-052-059>065-240800-
...EAST CENTRAL MISSOURI...

CITY           SKY/WX    TMP DP  RH WIND       PRES   REMARKS
ST LOUIS INTL  PTCLDY    57  47  69 SW3       30.08F
SPIRIT OF STL  CLEAR     53  48  83 CALM      30.08S
ST CHARLES     CLEAR     50  48  93 SW3       30.08S

$$
MOZ072>076-082>087-097>100-106>115-240800-
...SOUTH CENTRAL AND SOUTHEAST MISSOURI...

CITY           SKY/WX    TMP DP  RH WIND       PRES   REMARKS
CAPE GIRARDEAU MOCLDY    44  43  96 CALM      30.13S
FARMINGTON     CLOUDY    46  45  93 CALM      30.12S
POPLAR BLUFF   CLEAR     46  43  89 CALM      30.13S FOG
WEST PLAINS    MOCLDY    51  46  83 W3        30.13F

$$



USA.gov is the U.S. government's official web portal to all federal, state and local government web resources and services.